PST,Max TemperatureF,Mean TemperatureF,Min TemperatureF,Max Dew PointF,MeanDew PointF,Min DewpointF,Max Humidity, Mean Humidity, Min Humidity, Max Sea Level PressureIn, Mean Sea Level PressureIn, Min Sea Level PressureIn, Max VisibilityMiles, Mean VisibilityMiles, Min VisibilityMiles, Max Wind SpeedMPH, Mean Wind SpeedMPH, Max Gust SpeedMPH,PrecipitationIn, CloudCover, Events, WindDirDegrees
2011-11-1,67,62,56,56,54,52,100,82,63,29.98,29.94,29.90,10,4,0,9,3,12,0.00,5,Fog,178
2011-11-2,84,69,53,53,27,3,93,49,5,30.09,30.03,29.99,10,8,4,21,6,26,0.00,0,,42
2011-11-3,70,60,50,54,46,26,77,55,32,30.05,29.96,29.90,10,10,10,9,3,14,0.00,3,,219
2011-11-4,62,56,50,53,47,35,80,64,47,29.88,29.79,29.73,10,10,6,23,8,29,0.15,5,Rain,285
2011-11-5,63,54,44,45,41,35,92,66,39,30.04,29.97,29.84,10,10,8,13,3,16,0.00,0,,265
2011-11-6,62,55,47,51,46,41,93,77,60,30.05,30.01,29.96,10,8,2,16,4,20,0.23,5,Rain,35
2011-11-7,65,55,44,47,43,34,93,62,31,30.20,30.12,30.03,10,10,6,9,2,13,0.00,0,,275
2011-11-8,72,59,45,48,41,30,89,56,23,30.26,30.21,30.17,10,10,8,10,2,15,0.00,0,,295
2011-11-9,79,63,46,47,33,17,76,43,10,30.25,30.18,30.10,10,10,9,17,4,23,0.00,0,,3
2011-11-10,76,65,53,39,30,21,39,28,16,30.16,30.09,30.00,10,10,10,9,1,17,0.00,3,,318
2011-11-11,71,64,56,51,40,24,67,43,18,29.98,29.90,29.83,10,10,10,15,3,20,T,3,,156
2011-11-12,63,58,52,56,49,41,87,69,51,29.85,29.81,29.78,10,10,6,15,6,24,0.23,6,Rain,81
2011-11-13,73,63,52,53,51,49,93,70,47,29.96,29.90,29.84,10,10,10,16,5,,0.00,1,,298
2011-11-14,64,57,50,54,51,47,89,78,67,30.02,29.97,29.92,10,10,8,10,4,15,0.00,4,,159
2011-11-15,67,60,53,53,51,50,93,75,56,30.09,30.05,30.00,10,9,6,12,4,15,0.00,3,,325
2011-11-16,68,61,53,54,53,52,100,80,59,30.16,30.10,30.07,7,5,3,13,3,,0.00,4,,328
2011-11-17,68,59,50,57,53,48,100,84,67,30.11,30.04,29.97,7,4,0,10,3,13,0.00,3,Fog,137
2011-11-18,62,58,53,54,52,50,93,83,72,30.00,29.96,29.92,10,7,4,9,3,12,0.00,7,,113
2011-11-19,63,57,51,52,48,45,96,76,55,29.97,29.93,29.89,10,9,6,14,4,17,0.00,4,,196
2011-11-20,58,54,49,54,51,44,93,85,77,30.01,29.95,29.91,10,6,2,21,5,26,0.64,7,Rain,103
2011-11-21,63,55,46,52,48,43,100,74,48,30.27,30.11,30.01,10,4,0,10,2,14,0.00,3,Fog,291
2011-11-22,70,58,45,52,47,41,96,66,36,30.28,30.19,30.10,10,10,8,8,2,,0.00,0,,291
2011-11-23,64,54,44,54,50,43,96,82,67,30.08,30.01,29.95,10,9,4,8,3,13,0.00,3,,248
2011-11-24,62,56,49,51,49,46,89,75,60,30.12,30.03,29.97,10,9,5,9,2,13,T,5,Rain,201
2011-11-25,66,57,47,52,48,45,93,73,52,30.24,30.17,30.12,10,8,5,9,2,,0.00,2,,305
2011-11-26,86,66,45,49,42,25,93,52,11,30.28,30.23,30.19,10,8,4,9,4,10,0.00,0,,331
2011-11-27,86,70,53,40,32,25,46,29,12,30.28,30.22,30.16,10,10,10,10,5,12,0.00,0,,321
2011-11-28,79,67,54,52,41,31,86,52,18,30.14,30.09,30.05,10,10,10,24,2,,0.00,1,,274
2011-11-29,80,66,52,55,47,35,93,57,21,30.08,30.04,29.99,10,9,7,8,1,13,0.00,1,,103
2011-11-30,64,58,51,55,51,34,100,70,40,30.03,29.92,29.76,10,6,0,21,4,29,0.00,5,Fog,176